DW4657 Weather Reports


Display with metric or nautical units.
time (UTC)temp
F
wind
direction
speed
MPH
gust
MPH
rain 1hr
in
rain 24hr
in
rain mn
in
humidity
%
barometer
mb
20260906144021 65 27 4.0 9.0 0.00 0.04 0.04 77 1015.2
20260906143523 65 42 3.0 8.0 0.00 0.04 0.04 78 1015.2
20260906143051 64 19 2.0 5.0 0.00 0.04 0.04 80 1015.3
20260906142524 63 30 2.0 7.0 0.00 0.04 0.04 79 1015.1
20260906142024 63 29 2.0 7.0 0.00 0.04 0.04 79 1015.2
20260906141544 63 8 2.0 9.0 0.00 0.04 0.04 79 1015.1
20260906141028 63 352 3.0 9.0 0.00 0.04 0.04 80 1015.1
20260906140524 63 36 4.0 8.0 0.00 0.04 0.04 83 1015.1
20260906140048 63 16 1.0 6.0 0.00 0.04 0.04 85 1015.2
20260906135519 62 36 1.0 5.0 0.00 0.04 0.04 88 1015.1
20260906135023 62 0 0.0 5.0 0.00 0.04 0.04 89 1015.1
20260906134551 62 37 2.0 5.0 0.01 0.04 0.04 90 1015.1
20260906134019 62 0 0.0 3.0 0.01 0.04 0.04 90 1015.2
20260906133521 62 0 0.0 3.0 0.01 0.04 0.04 90 1015.3
20260906133042 62 0 0.0 3.0 0.01 0.04 0.04 91 1015.2
20260906132524 62 25 0.0 3.0 0.01 0.04 0.04 92 1015.2
20260906132023 62 0 0.0 1.0 0.01 0.04 0.04 93 1015.3
20260906131549 61 0 0.0 0.0 0.01 0.04 0.04 94 1015.2
20260906131024 61 0 0.0 0.0 0.01 0.04 0.04 94 1015.1
20260906130524 61 0 0.0 0.0 0.01 0.04 0.04 94 1015.3
20260906130050 60 0 0.0 0.0 0.01 0.04 0.04 94 1015.2
20260906125521 60 0 0.0 0.0 0.01 0.04 0.04 94 1015.2
20260906125019 60 0 0.0 0.0 0.01 0.04 0.04 94 1015.2
20260906124546 60 0 0.0 0.0 0.00 0.03 0.03 94 1015.1
20260906124021 60 0 0.0 0.0 0.00 0.03 0.03 94 1015.1
20260906123523 60 0 0.0 0.0 0.00 0.03 0.03 95 1015.2
20260906123113 59 0 0.0 0.0 0.00 0.03 0.03 94 1015.1
20260906122524 59 0 0.0 0.0 0.00 0.03 0.03 94 1015.0
20260906122023 59 0 0.0 0.0 0.00 0.03 0.03 94 1015.0
20260906121544 59 0 0.0 0.0 0.00 0.03 0.03 94 1014.9
20260906121023 59 0 0.0 0.0 0.00 0.03 0.03 95 1014.9
20260906120519 59 0 0.0 0.0 0.00 0.03 0.03 95 1014.9
20260906120043 59 0 0.0 0.0 0.00 0.03 0.03 95 1014.8
20260906115524 59 0 0.0 0.0 0.00 0.03 0.03 95 1014.8
20260906115024 59 0 0.0 0.0 0.00 0.03 0.03 94 1014.9
20260906114541 59 0 0.0 0.0 0.00 0.03 0.03 94 1014.8
20260906114023 59 0 0.0 0.0 0.00 0.03 0.03 94 1014.6
20260906113523 58 0 0.0 0.0 0.01 0.03 0.03 94 1014.7
20260906113045 58 0 0.0 0.0 0.01 0.03 0.03 94 1014.6
20260906112524 58 0 0.0 0.0 0.02 0.03 0.03 94 1014.4
20260906112025 58 0 0.0 0.0 0.02 0.03 0.03 94 1014.3
20260906111542 58 0 0.0 0.0 0.03 0.03 0.03 94 1014.2
20260906111022 58 0 0.0 0.0 0.03 0.03 0.03 93 1014.2
20260906110519 58 0 0.0 0.0 0.03 0.03 0.03 93 1014.1
20260906110040 58 0 0.0 0.0 0.03 0.03 0.03 93 1014.1
20260906105523 58 0 0.0 0.0 0.03 0.03 0.03 93 1013.9
20260906105023 58 0 0.0 0.0 0.03 0.03 0.03 93 1013.8
20260906104541 58 0 0.0 0.0 0.03 0.03 0.03 93 1013.8
20260906104024 58 0 0.0 0.0 0.03 0.03 0.03 92 1013.8
20260906103524 58 0 0.0 0.0 0.02 0.02 0.02 92 1014.0
20260906103048 58 0 0.0 0.0 0.02 0.02 0.02 92 1014.0
20260906102524 58 0 0.0 0.0 0.01 0.01 0.01 91 1013.9
20260906102024 59 0 0.0 0.0 0.01 0.01 0.01 91 1013.9
20260906101546 59 0 0.0 0.0 0.00 0.00 0.00 91 1013.9
20260906101023 59 0 0.0 0.0 0.00 0.00 0.00 91 1013.7
20260906100524 59 0 0.0 0.0 0.00 0.00 0.00 90 1013.6
20260906100040 59 0 0.0 0.0 0.00 0.00 0.00 90 1013.6
20260906095521 59 0 0.0 0.0 0.00 0.00 0.00 89 1013.4
20260906095024 59 0 0.0 3.0 0.00 0.00 0.00 89 1013.3
20260906094554 59 0 0.0 3.0 0.00 0.00 0.00 89 1013.3
20260906094024 59 25 0.0 4.0 0.00 0.00 0.00 88 1013.4
20260906093525 60 36 1.0 7.0 0.00 0.00 0.00 88 1013.3
20260906093049 60 20 2.0 7.0 0.00 0.00 0.00 88 1013.2
20260906092523 60 11 1.0 6.0 0.00 0.00 0.00 87 1013.2
20260906092024 60 27 2.0 6.0 0.00 0.00 0.00 87 1013.0
20260906091558 60 39 2.0 5.0 0.00 0.00 0.00 88 1013.1
20260906091019 60 27 1.0 3.0 0.00 0.00 0.00 88 1013.1
20260906090521 60 0 1.0 5.0 0.00 0.00 0.00 89 1013.0
20260906090044 60 37 1.0 5.0 0.00 0.00 0.00 89 1012.8
20260906085527 60 32 0.0 3.0 0.00 0.00 0.00 89 1012.9
20260906085024 60 33 1.0 3.0 0.00 0.00 0.00 90 1012.8
20260906084547 60 32 1.0 3.0 0.00 0.00 0.00 91 1012.8
20260906084026 60 32 0.0 4.0 0.00 0.00 0.00 92 1012.8
20260906083524 60 0 0.0 4.0 0.00 0.00 0.00 93 1012.9
20260906083044 60 30 0.0 2.0 0.00 0.00 0.00 93 1012.6
20260906082523 60 39 0.0 2.0 0.00 0.00 0.00 94 1012.7
20260906082019 60 0 0.0 1.0 0.00 0.00 0.00 94 1012.5
20260906081545 60 0 0.0 0.0 0.00 0.00 0.00 94 1012.7
20260906081020 60 0 0.0 2.0 0.00 0.00 0.00 94 1012.5
20260906080522 60 0 0.0 2.0 0.00 0.00 0.00 95 1012.5
20260906080045 60 0 0.0 0.0 0.00 0.00 0.00 94 1012.5
20260906075525 60 0 0.0 0.0 0.00 0.00 0.00 94 1012.5
20260906075024 60 0 0.0 0.0 0.00 0.00 0.00 94 1012.5
20260906074550 60 0 0.0 0.0 0.00 0.00 0.00 94 1012.4
20260906074023 60 0 0.0 0.0 0.00 0.00 0.00 94 1012.3
20260906073524 60 0 0.0 0.0 0.00 0.00 0.00 94 1012.4
20260906073046 59 0 0.0 0.0 0.00 0.00 0.00 94 1012.5
20260906072525 59 0 0.0 0.0 0.00 0.00 0.00 94 1012.5
20260906072024 59 0 0.0 0.0 0.00 0.00 0.00 94 1012.5
20260906071544 59 0 0.0 0.0 0.00 0.00 0.00 94 1012.6
20260906071021 59 0 0.0 0.0 0.00 0.00 0.00 94 1012.5
20260906070519 59 0 0.0 0.0 0.00 0.00 0.00 94 1012.5
20260906070040 59 0 0.0 0.0 0.00 0.00 0.00 94 1012.6
20260906065525 59 0 0.0 0.0 0.00 0.00 0.00 94 1012.6
20260906065024 59 0 0.0 0.0 0.00 0.00 0.00 94 1012.4
20260906064545 58 0 0.0 0.0 0.00 0.00 0.00 94 1012.3
20260906064024 58 0 0.0 0.0 0.00 0.00 0.00 94 1012.4
20260906063523 58 0 0.0 0.0 0.00 0.00 0.00 93 1012.4
20260906063041 58 0 0.0 0.0 0.00 0.00 0.00 93 1012.5
20260906062523 58 0 0.0 0.0 0.00 0.00 0.00 93 1012.5
20260906062024 58 0 0.0 0.0 0.00 0.00 0.00 93 1012.6
20260906061545 58 0 0.0 0.0 0.00 0.00 0.00 93 1012.5
20260906061025 59 0 0.0 0.0 0.00 0.00 0.00 93 1012.5
20260906060526 59 0 0.0 0.0 0.00 0.00 0.00 93 1012.5
20260906060044 59 0 0.0 0.0 0.00 0.00 0.00 93 1012.5
20260906055524 59 0 0.0 0.0 0.00 0.00 0.00 93 1012.5
20260906055024 59 0 0.0 0.0 0.00 0.00 0.00 93 1012.5
20260906054545 59 0 0.0 0.0 0.00 0.00 0.00 93 1012.6
20260906054018 59 0 0.0 0.0 0.00 0.00 0.00 92 1012.7
20260906053523 59 0 0.0 0.0 0.00 0.00 0.00 92 1012.7
20260906053101 59 0 0.0 0.0 0.00 0.00 0.00 92 1012.7
20260906052524 59 0 0.0 0.0 0.00 0.00 0.00 92 1012.7
20260906052024 59 0 0.0 0.0 0.00 0.00 0.00 92 1012.8
20260906051545 59 0 0.0 0.0 0.00 0.00 0.00 92 1012.8
20260906051024 59 0 0.0 0.0 0.00 0.00 0.00 92 1012.9
20260906050523 59 0 0.0 0.0 0.00 0.00 0.00 92 1012.9
20260906050051 59 0 0.0 0.0 0.00 0.00 0.00 92 1012.9
20260906045518 59 0 0.0 0.0 0.00 0.00 0.00 92 1012.9
20260906045022 59 0 0.0 0.0 0.00 0.00 0.00 92 1012.8
20260906044542 60 0 0.0 0.0 0.00 0.00 0.00 92 1012.8
20260906044030 60 0 0.0 0.0 0.00 0.00 0.00 91 1012.7
20260906043524 60 0 0.0 0.0 0.00 0.00 0.00 91 1012.8
20260906043051 60 0 0.0 0.0 0.00 0.00 0.00 91 1012.8
20260906042523 60 0 0.0 0.0 0.00 0.00 0.00 91 1012.7
20260906042024 60 0 0.0 0.0 0.00 0.00 0.00 91 1012.7
20260906041544 60 0 0.0 0.0 0.00 0.00 0.00 91 1012.7
20260906041024 60 0 0.0 0.0 0.00 0.00 0.00 90 1012.7
20260906040523 60 0 0.0 0.0 0.00 0.00 0.00 90 1012.6
20260906040043 60 0 0.0 0.0 0.00 0.00 0.00 90 1012.6
20260906035518 60 0 0.0 0.0 0.00 0.00 0.00 90 1012.5
20260906035022 60 0 0.0 0.0 0.00 0.00 0.00 90 1012.4
20260906034542 61 0 0.0 0.0 0.00 0.00 0.00 89 1012.4
20260906034024 61 0 0.0 0.0 0.00 0.00 0.00 89 1012.3
20260906033524 61 0 0.0 0.0 0.00 0.00 0.00 89 1012.3
20260906033058 61 0 0.0 0.0 0.00 0.00 0.00 89 1012.3
20260906032524 61 0 0.0 0.0 0.00 0.00 0.00 89 1012.2
20260906032024 61 0 0.0 0.0 0.00 0.00 0.00 89 1012.2
20260906031540 61 0 0.0 0.0 0.00 0.00 0.00 89 1012.2
20260906031021 61 0 0.0 0.0 0.00 0.00 0.00 89 1012.2
20260906030521 61 0 0.0 0.0 0.00 0.00 0.00 89 1012.2
20260906030045 61 0 0.0 0.0 0.00 0.00 0.00 89 1012.3
20260906025524 61 0 0.0 0.0 0.00 0.00 0.00 88 1012.4
20260906025024 61 0 0.0 0.0 0.00 0.00 0.00 89 1012.4
20260906024548 61 0 0.0 0.0 0.00 0.00 0.00 88 1012.5
20260906024024 62 0 0.0 0.0 0.00 0.00 0.00 88 1012.5
20260906023525 62 0 0.0 0.0 0.00 0.00 0.00 88 1012.6
20260906023050 62 0 0.0 0.0 0.00 0.00 0.00 88 1012.5
20260906022519 62 0 0.0 0.0 0.00 0.00 0.00 88 1012.5
20260906022026 62 0 0.0 0.0 0.00 0.00 0.00 88 1012.4
20260906021547 62 0 0.0 0.0 0.00 0.00 0.00 88 1012.5
20260906021024 62 0 0.0 0.0 0.00 0.00 0.00 88 1012.5
20260906020524 62 0 0.0 0.0 0.00 0.00 0.00 88 1012.5
20260906020057 62 0 0.0 0.0 0.00 0.00 0.00 88 1012.4
20260906015523 62 0 0.0 0.0 0.00 0.00 0.00 88 1012.6
20260906015024 62 0 0.0 0.0 0.00 0.00 0.00 88 1012.5
20260906014544 62 0 0.0 0.0 0.00 0.00 0.00 88 1012.7
20260906014025 62 0 0.0 0.0 0.00 0.00 0.00 88 1012.7
20260906013521 62 0 0.0 0.0 0.00 0.00 0.00 88 1012.7
20260906013050 62 0 0.0 0.0 0.00 0.00 0.00 88 1012.7
20260906012523 62 0 0.0 0.0 0.00 0.00 0.00 88 1012.8
20260906012029 62 0 0.0 0.0 0.00 0.00 0.00 88 1012.7
20260906011559 62 0 0.0 0.0 0.00 0.00 0.00 88 1012.5
20260906011023 62 0 0.0 0.0 0.00 0.00 0.00 88 1012.4
20260906010525 62 0 0.0 0.0 0.00 0.00 0.00 88 1012.4
20260906010047 62 0 0.0 0.0 0.00 0.00 0.00 88 1012.3
20260906005525 62 0 0.0 0.0 0.00 0.00 0.00 88 1012.4
20260906005029 62 0 0.0 0.0 0.00 0.00 0.00 88 1012.4
20260906004543 62 0 0.0 0.0 0.00 0.00 0.00 88 1012.3
20260906004029 62 0 0.0 0.0 0.00 0.00 0.00 88 1012.3
20260906003525 62 0 0.0 0.0 0.00 0.00 0.00 88 1012.3
20260906003047 62 0 0.0 0.0 0.00 0.00 0.00 87 1012.3
20260906002524 63 0 0.0 0.0 0.00 0.00 0.00 87 1012.1
20260906002025 63 0 0.0 0.0 0.00 0.00 0.00 87 1012.1
20260906001548 63 0 0.0 0.0 0.00 0.00 0.00 87 1012.0
20260906001025 63 0 0.0 0.0 0.00 0.00 0.00 86 1011.9
20260906000525 63 0 0.0 0.0 0.00 0.00 0.00 86 1011.9
20260906000054 63 0 0.0 0.0 0.00 0.00 0.00 86 1011.8
20260905235523 63 0 0.0 0.0 0.00 0.00 0.00 86 1011.9
20260905235021 63 0 0.0 0.0 0.00 0.00 0.00 85 1011.8
20260905234545 63 0 0.0 0.0 0.00 0.00 0.00 85 1011.9
20260905234019 63 0 0.0 0.0 0.00 0.00 0.00 84 1011.8
20260905233524 64 0 0.0 0.0 0.00 0.00 0.00 84 1011.8
20260905233046 64 0 0.0 0.0 0.00 0.00 0.00 83 1011.6
20260905232524 64 0 0.0 0.0 0.00 0.00 0.00 83 1011.6
20260905232024 64 0 0.0 0.0 0.00 0.00 0.00 83 1011.6
20260905231545 64 0 0.0 0.0 0.00 0.00 0.00 82 1011.7
20260905231024 65 0 0.0 0.0 0.00 0.00 0.00 82 1011.7
20260905230524 65 0 0.0 0.0 0.00 0.00 0.00 82 1011.7
20260905230042 65 0 0.0 0.0 0.00 0.00 0.00 81 1011.6
20260905225525 65 0 0.0 0.0 0.00 0.00 0.00 81 1011.6
20260905225023 65 0 0.0 1.0 0.00 0.00 0.00 81 1011.7
20260905224550 65 0 0.0 1.0 0.00 0.00 0.00 81 1011.7
20260905224023 65 0 0.0 1.0 0.00 0.00 0.00 80 1011.8
20260905223525 65 0 0.0 3.0 0.00 0.00 0.00 79 1011.9
20260905223045 65 8 1.0 3.0 0.00 0.00 0.00 79 1011.8
20260905222524 65 0 0.0 2.0 0.00 0.00 0.00 80 1011.8
20260905222023 65 39 1.0 2.0 0.00 0.00 0.00 79 1011.8
20260905221543 65 30 0.0 3.0 0.00 0.00 0.00 79 1011.9
20260905221022 65 41 1.0 4.0 0.00 0.00 0.00 79 1011.9
20260905220523 65 20 1.0 4.0 0.00 0.00 0.00 79 1011.8
20260905220046 66 34 1.0 5.0 0.00 0.00 0.00 79 1011.7
20260905215524 66 18 2.0 5.0 0.00 0.00 0.00 78 1011.6
20260905215030 66 39 2.0 5.0 0.00 0.00 0.00 78 1011.5
20260905214544 66 359 2.0 5.0 0.00 0.00 0.00 79 1011.4
20260905214024 66 20 2.0 4.0 0.00 0.00 0.00 79 1011.4
20260905213525 66 28 2.0 6.0 0.00 0.00 0.00 79 1011.3
20260905213044 66 34 2.0 8.0 0.00 0.00 0.00 79 1011.3
20260905212522 66 27 2.0 8.0 0.00 0.00 0.00 78 1011.2
20260905212024 67 32 3.0 8.0 0.00 0.00 0.00 78 1011.2
20260905211550 67 359 3.0 8.0 0.00 0.00 0.00 78 1011.2
20260905211024 67 30 2.0 4.0 0.00 0.00 0.00 78 1011.0
20260905210524 67 356 1.0 6.0 0.00 0.00 0.00 78 1011.0
20260905210048 67 30 1.0 6.0 0.00 0.00 0.00 78 1011.0
20260905205524 67 18 1.0 5.0 0.00 0.00 0.00 77 1011.0
20260905205024 68 0 0.0 7.0 0.00 0.00 0.00 78 1010.9
20260905204546 68 310 3.0 7.0 0.00 0.00 0.00 77 1010.9
20260905204023 68 37 2.0 5.0 0.00 0.00 0.00 78 1010.9
20260905203521 68 27 1.0 5.0 0.00 0.00 0.00 77 1010.8
20260905203042 68 342 2.0 6.0 0.00 0.00 0.00 77 1010.7
20260905202526 68 41 1.0 6.0 0.00 0.00 0.00 76 1010.6
20260905202020 69 44 3.0 6.0 0.00 0.00 0.00 76 1010.6
20260905201546 69 22 2.0 6.0 0.00 0.00 0.00 76 1010.4
20260905201023 68 356 2.0 6.0 0.00 0.00 0.00 77 1010.5
20260905200526 68 353 1.0 7.0 0.00 0.00 0.00 77 1010.4
20260905200047 69 0 3.0 7.0 0.00 0.00 0.00 76 1010.4
20260905195524 69 25 3.0 5.0 0.00 0.00 0.00 77 1010.3
20260905195024 69 34 1.0 8.0 0.00 0.00 0.00 76 1010.3
20260905194545 69 34 2.0 8.0 0.00 0.00 0.00 77 1010.3
20260905194024 69 44 3.0 8.0 0.00 0.00 0.00 77 1010.3
20260905193521 69 20 4.0 8.0 0.00 0.00 0.00 75 1010.2
20260905193043 69 35 3.0 10.0 0.00 0.00 0.00 76 1010.4
20260905192524 69 9 3.0 10.0 0.00 0.00 0.00 77 1010.5
20260905192023 69 351 2.0 10.0 0.00 0.00 0.00 77 1010.4
20260905191550 69 37 3.0 10.0 0.00 0.00 0.00 77 1010.5
20260905191024 69 8 3.0 8.0 0.00 0.00 0.00 78 1010.5
20260905190524 69 34 3.0 8.0 0.00 0.00 0.00 77 1010.6
20260905190045 69 29 3.0 11.0 0.00 0.00 0.00 77 1010.7
20260905185524 69 4 3.0 11.0 0.00 0.00 0.00 77 1010.6
20260905185018 69 20 3.0 9.0 0.00 0.00 0.00 77 1010.4
20260905184608 69 43 5.0 9.0 0.00 0.00 0.00 76 1010.5
20260905184021 69 24 4.0 8.0 0.00 0.00 0.00 77 1010.5
20260905183526 69 30 2.0 9.0 0.00 0.00 0.00 78 1010.6
20260905183051 69 18 4.0 9.0 0.00 0.00 0.00 77 1010.7
20260905182526 70 345 3.0 9.0 0.00 0.00 0.00 76 1010.6
20260905182026 70 26 3.0 9.0 0.00 0.00 0.00 76 1010.5
20260905181555 71 28 3.0 10.0 0.00 0.00 0.00 75 1010.5
20260905181027 71 23 4.0 10.0 0.00 0.00 0.00 75 1010.5
20260905180524 71 345 4.0 8.0 0.00 0.00 0.00 74 1010.5
20260905180114 71 349 3.0 8.0 0.00 0.00 0.00 75 1010.4
20260905175525 70 39 3.0 8.0 0.00 0.00 0.00 75 1010.3
20260905175024 70 24 3.0 8.0 0.00 0.00 0.00 74 1010.3
20260905174547 71 33 1.0 7.0 0.00 0.00 0.00 75 1010.2
20260905174024 70 37 2.0 12.0 0.00 0.00 0.00 75 1010.2
20260905173525 70 26 4.0 12.0 0.00 0.00 0.00 76 1010.2
20260905173044 70 20 4.0 9.0 0.00 0.00 0.00 76 1010.1
20260905172525 69 25 3.0 8.0 0.00 0.00 0.00 77 1010.2
20260905172024 69 24 3.0 8.0 0.00 0.00 0.00 77 1010.1
20260905171544 69 31 2.0 9.0 0.00 0.00 0.00 78 1010.1
20260905171027 69 37 5.0 9.0 0.00 0.00 0.00 77 1010.1
20260905170522 69 29 2.0 9.0 0.00 0.00 0.00 77 1010.1
20260905170046 69 20 3.0 9.0 0.00 0.00 0.00 76 1010.1
20260905165525 69 39 4.0 8.0 0.00 0.00 0.00 77 1010.1
20260905165026 69 27 2.0 8.0 0.00 0.00 0.00 77 1010.1
20260905164546 69 15 1.0 9.0 0.00 0.00 0.00 78 1010.0
20260905164024 69 37 2.0 9.0 0.00 0.00 0.00 77 1009.9
20260905163524 69 16 2.0 5.0 0.00 0.00 0.00 78 1009.9
20260905163045 69 30 1.0 7.0 0.00 0.00 0.00 79 1010.0
20260905162519 69 23 3.0 7.0 0.00 0.00 0.00 79 1009.9
20260905162019 69 357 3.0 9.0 0.00 0.00 0.00 79 1009.9
20260905161542 69 27 2.0 9.0 0.00 0.00 0.00 79 1010.0
20260905161026 69 34 2.0 7.0 0.00 0.00 0.00 79 1009.9
20260905160524 69 18 2.0 10.0 0.00 0.00 0.00 78 1010.0
20260905160049 69 19 4.0 10.0 0.00 0.00 0.00 77 1009.9
20260905155524 70 27 3.0 7.0 0.00 0.00 0.00 77 1009.9
20260905155025 70 25 3.0 7.0 0.00 0.00 0.00 76 1009.9
20260905154607 70 23 2.0 6.0 0.00 0.00 0.00 76 1009.8
20260905154024 70 19 2.0 13.0 0.00 0.00 0.00 76 1009.8
20260905153526 70 29 6.0 13.0 0.00 0.00 0.00 75 1009.8
20260905153044 71 26 4.0 7.0 0.00 0.00 0.00 75 1009.7
20260905152519 71 27 3.0 9.0 0.00 0.00 0.00 75 1009.6
20260905152020 70 9 3.0 10.0 0.00 0.00 0.00 76 1009.6
20260905151544 70 51 5.0 10.0 0.00 0.00 0.00 75 1009.6
20260905151024 70 25 2.0 8.0 0.00 0.00 0.00 76 1009.6
20260905150524 70 18 1.0 8.0 0.00 0.00 0.00 76 1009.6
20260905150045 71 23 3.0 8.0 0.00 0.00 0.00 75 1009.5
20260905145525 71 37 3.0 8.0 0.00 0.00 0.00 75 1009.5
20260905145024 71 1 2.0 10.0 0.00 0.00 0.00 75 1009.4
20260905144546 70 39 5.0 10.0 0.00 0.00 0.00 75 1009.4